Погода в Микрах

Россия / Республика Дагестан     41°22′26″N   47°53′09″E
темп.,
°C
ветер,
м/с
пор.,
м/с
влажн.,
%
обл.,
%
осадки,
мм/ч
давл.,
гПа
погр.,
м
25 июня, сб
сб2500:00+7ююз447935 1.0 101448
03:00+7ююз44766 1.1 101448
06:00+10ююз34735 0.0 1013133
09:00+14юз34532 0.0 10121270
12:00+15ююз25543 0.4 10111547
15:00+14ююз23593 1.5 10121192
18:00+12ююз34700 0.6 1012344
21:00+8ююз4381100 1.3 101433
26 июня, вс
вс2600:00+9ююз4376100 1.2 101434
03:00+8ююз327346 2.3 101421
06:00+11ююз336997 0.1 101279
09:00+13ююз21056100 0.4 10111849
12:00+12ю466395 2.9 1011958
15:00+14ююв25618 4.8 10091027
18:00+12ю347278 2.6 1010140
21:00+10юз326884 3.3 101225
27 июня, пн
пн2700:00+8ююз32694 0.3 101317
03:00+9ююз22610 0.3 101314
06:00+12ю11650 0.0 101267
09:00+15в13580 0.1 1011947
12:00+16в23637 1.1 10121075
15:00+15вюв23718 3.0 1013860
18:00+12ююв128417 0.7 1013378
21:00+9юз33880 0.8 101522
28 июня, вт
вт2800:00+9юз33670 0.1 101522
03:00+9ююз33670 0.1 101320
06:00+12юз33690 0.0 101285
09:00+16юз13550 0.0 1011901
12:00+16ююв03617 0.4 10111051
15:00+15ю136612 1.2 1012998
18:00+13юз247613 0.3 1013441
21:00+9зюз22890 0.3 101514
29 июня, ср
ср2900:00+7зсз01887 0.1 101612
03:00+7в119138 0.1 101626
06:00+9в11790 0.0 1015110
09:00+12всв137951 0.1 1014738
12:00+11в137952 0.5 1015719
15:00+11всв128179 1.2 1016654
18:00+10вюв028538 0.5 1016312
21:00+6ююв11925 0.6 101711